This demonstration page uses our WeatherBlox Daily Observations layout. Learn more.

Left ArrowRight Arrow

Hourly Observations for February 21, 2020

Temp ( °F °C ) Dew Point ( °F °C ) Humidity (%) Winds ( mph kmh ) Pressure ( in mb ) Visibility ( mi km ) Precip ( " mm )
12:56 am 00:56 Clear 21 -6.1 17 -8.3 85 85 SSW 12 19 30.63 1037 10 16 0.00 0.00
1:56 am 01:56 Clear 20 -6.7 17 -8.3 89 89 SSW 14 22 30.60 1036 10 16 0.00 0.00
2:56 am 02:56 Clear 19 -7.2 17 -8.3 92 92 SSW 12 19 30.56 1035 10 16 0.00 0.00
3:56 am 03:56 Clear 19 -7.2 17 -8.3 92 92 SW 12 19 30.53 1034 10 16 0.00 0.00
4:56 am 04:56 Clear 19 -7.2 16 -8.9 88 88 SSW 15 24 30.50 1033 10 16 0.00 0.00
5:56 am 05:56 Clear 19 -7.2 16 -8.9 88 88 SSW 14 22 30.48 1032 10 16 0.00 0.00
6:56 am 06:56 Clear 19 -7.2 17 -8.3 92 92 SW 13 20 30.47 1032 10 16 0.00 0.00
7:56 am 07:56 Sunny 21 -6.1 18 -7.8 88 88 SW 16 26 30.46 1032 10 16 0.00 0.00
8:56 am 08:56 Sunny 26 -3.3 21 -6.1 81 81 SW 17 28 30.46 1031 10 16 0.00 0.00
9:56 am 09:56 Sunny 31 -0.6 24 -4.4 76 76 SSW 21 33 30.44 1031 10 16 0.00 0.00
10:56 am 10:56 Sunny 35 1.7 25 -3.9 67 67 SSW 22 35 30.41 1030 10 16 0.00 0.00
11:56 am 11:56 Sunny 41 5 26 -3.3 55 55 SSW 24 39 30.38 1029 10 16 0.00 0.00
12:56 pm 12:56 Sunny 46 7.8 26 -3.3 46 46 undefined N/A 30.34 1027 10 16 0.00 0.00
1:56 pm 13:56 Sunny 49 9.4 26 -3.3 41 41 SW 20 31 30.29 1026 10 16 0.00 0.00
2:56 pm 14:56 Sunny 52 11.1 25 -3.9 35 35 SSW 20 31 30.25 1025 10 16 0.00 0.00
3:56 pm 15:56 Sunny 51 10.6 26 -3.3 38 38 SSW 17 28 30.25 1025 10 16 0.00 0.00
4:56 pm 16:56 Sunny 50 10 27 -2.8 41 41 SSW 15 24 30.24 1024 10 16 0.00 0.00
5:56 pm 17:56 Sunny 43 6.1 27 -2.8 53 53 S 12 19 30.24 1024 10 16 0.00 0.00
6:56 pm 18:56 Clear 39 3.9 27 -2.8 62 62 S 12 19 30.25 1024 10 16 0.00 0.00
7:56 pm 19:56 Clear 37 2.8 28 -2.2 70 70 SSW 12 19 30.25 1024 10 16 0.00 0.00
8:56 pm 20:56 Clear 35 1.7 28 -2.2 76 76 SSW 13 20 30.24 1024 10 16 0.00 0.00
9:56 pm 21:56 Clear 34 1.1 28 -2.2 79 79 SSW 9 15 30.23 1024 10 16 0.00 0.00
10:56 pm 22:56 Clear 33 0.6 29 -1.7 85 85 SSW 10 17 30.22 1023 10 16 0.00 0.00
11:56 pm 23:56 Clear 31 -0.6 28 -2.2 89 89 SSW 6 9 30.19 1022 10 16 0.00 0.00

Powered by AerisWeather